Weather History for KLSF - August, 2014

Change the Weather History Date:

Sunday, August 24, 2014

  Actual Average Record
Temperature  
Mean Temperature 83 °F -  
Max Temperature 95 °F 88 °F 97 °F (2010)
Min Temperature 71 °F 67 °F 59 °F (1997)
Cooling Degree Days 18    
Growing Degree Days 33 (Base 50)    
Moisture  
Dew Point 73 °F    
Average Humidity 79    
Maximum Humidity 100    
Minimum Humidity 47    
Precipitation  
Precipitation 0.01 in - - ()
Sea Level Pressure  
Sea Level Pressure 29.89 in    
Wind  
Wind Speed 4 mph (East)    
Max Wind Speed 14 mph    
Max Gust Speed 22 mph    
Visibility 10 miles    
Events Rain , Thunderstorm    
Averages and records for this station are not official NWS values.
T = Trace of Precipitation, MM = Missing Value Source: NWS Daily Summary

Daily Weather History Graph

Daily Weather History Graph

Search for Another Location

Airport or City:

Trip Planner

Search our weather history database for the weather conditions in past years. The results will help you decide how hot, cold, wet, or windy it might be!

Date:

Astronomy

Aug. 24, 2014 Rise Set
Actual Time 7:09 AM EDT 8:14 PM EDT
Civil Twilight 6:44 AM EDT 8:39 PM EDT
Nautical Twilight 6:14 AM EDT 9:09 PM EDT
Astronomical Twilight 5:43 AM EDT 9:40 PM EDT
Moon 6:19 AM EDT (8/24) 7:33 PM EDT (8/24)
Length of Visible Light 13h 54m
Length of Day
13h 04m
Waning Crescent, 1% of the Moon is Illuminated
Aug 24
Waning Crescent
Aug 25
New
Sep 2
First Quarter
Sep 8
Full
Sep 15
Last Quarter

Hourly Weather History & Observations

Time (EDT) Temp. Heat Index Dew Point Humidity Pressure Visibility Wind Dir Wind Speed Gust Speed Precip Events Conditions
12:58 AM 75.7 °F - 73.2 °F 92% 29.90 in 10.0 mi Calm Calm - N/A   Clear
1:58 AM 74.3 °F - 72.5 °F 94% 29.89 in 10.0 mi ESE 2.3 mph - N/A   Clear
2:58 AM 72.7 °F - 71.4 °F 96% 29.86 in 10.0 mi WNW 1.2 mph - N/A   Clear
3:58 AM 72.1 °F - 70.9 °F 96% 29.87 in 10.0 mi WNW 2.3 mph - N/A   Clear
4:38 AM 71.6 °F - 69.8 °F 94% 29.86 in 9.0 mi Calm Calm - N/A   Clear
4:48 AM 71.6 °F - 71.6 °F 100% 29.86 in 9.0 mi Calm Calm - N/A   Clear
4:58 AM 72.0 °F - 71.1 °F 97% 29.86 in 10.0 mi NNW 3.5 mph - N/A   Clear
5:58 AM 74.3 °F - 72.0 °F 92% 29.87 in 10.0 mi WNW 3.5 mph - N/A   Clear
6:58 AM 72.5 °F - 71.2 °F 96% 29.88 in 10.0 mi Calm Calm - N/A   Clear
7:58 AM 72.9 °F - 71.8 °F 96% 29.90 in 10.0 mi NW 2.3 mph - N/A   Clear
8:58 AM 79.9 °F - 73.4 °F 80% 29.90 in 10.0 mi Variable 2.3 mph - N/A   Clear
9:58 AM 84.2 °F 90.6 °F 73.2 °F 69% 29.90 in 10.0 mi NNE 6.9 mph - N/A   Clear
10:58 AM 88.0 °F 96.5 °F 73.8 °F 63% 29.91 in 10.0 mi North 8.1 mph - N/A   Clear
11:58 AM 91.0 °F 101.0 °F 74.3 °F 58% 29.90 in 10.0 mi NE 10.4 mph - N/A   Clear
12:58 PM 93.2 °F 103.0 °F 73.8 °F 53% 29.90 in 10.0 mi North 9.2 mph - N/A   Clear
1:58 PM 95.0 °F 104.5 °F 73.0 °F 49% 29.88 in 10.0 mi East 6.9 mph - N/A   Partly Cloudy
2:58 PM 95.4 °F 104.0 °F 72.3 °F 47% 29.85 in 10.0 mi NE 10.4 mph - N/A   Scattered Clouds
3:02 PM 93.2 °F 102.4 °F 73.4 °F 52% 29.85 in 10.0 mi ENE 8.1 mph - N/A Rain Light Rain
3:15 PM 91.4 °F 100.1 °F 73.4 °F 55% 29.86 in 10.0 mi ESE 12.7 mph - N/A Thunderstorm Scattered Clouds
3:58 PM 85.8 °F 93.4 °F 73.9 °F 67% 29.86 in 10.0 mi SE 5.8 mph - 0.00 in Thunderstorm Clear
4:47 PM 87.8 °F 97.6 °F 75.2 °F 66% 29.86 in 10.0 mi SSE 10.4 mph - N/A   Light Drizzle
4:58 PM 85.3 °F 95.4 °F 76.5 °F 75% 29.86 in 7.0 mi SE 2.3 mph - 0.01 in Rain Light Rain
5:10 PM 86.0 °F 101.9 °F 80.6 °F 84% 29.85 in 10.0 mi ESE 6.9 mph - N/A   Scattered Clouds
5:58 PM 85.8 °F 94.2 °F 74.5 °F 69% 29.86 in 10.0 mi ESE 11.5 mph - 0.00 in   Clear
6:58 PM 86.0 °F 93.4 °F 73.4 °F 66% 29.87 in 10.0 mi East 3.5 mph - N/A   Clear
7:58 PM 80.2 °F 86.0 °F 76.3 °F 88% 29.89 in 10.0 mi Calm Calm - N/A   Clear
8:50 PM 78.8 °F - 75.2 °F 89% 29.91 in 10.0 mi Calm Calm - N/A Rain Light Rain
8:58 PM 78.4 °F - 75.9 °F 92% 29.91 in 9.0 mi ESE 1.2 mph - 0.00 in Rain Light Rain
8:59 PM 78.8 °F - 75.2 °F 89% 29.91 in 9.0 mi Calm Calm - N/A   Partly Cloudy
9:44 PM 78.8 °F - 75.2 °F 89% 29.93 in 10.0 mi East 10.4 mph 18.4 mph N/A   Mostly Cloudy
9:57 PM 80.6 °F 84.6 °F 71.6 °F 74% 29.93 in 10.0 mi ESE 13.8 mph 21.9 mph N/A   Overcast
9:58 PM 80.8 °F 85.1 °F 72.3 °F 75% 29.93 in 10.0 mi ESE 12.7 mph 21.9 mph 0.00 in   Overcast
10:06 PM 78.8 °F - 73.4 °F 83% 29.92 in 10.0 mi SSE 4.6 mph - N/A   Light Drizzle
10:15 PM 78.8 °F - 73.4 °F 83% 29.93 in 10.0 mi Calm Calm - N/A   Mostly Cloudy
10:58 PM 75.7 °F - 73.6 °F 93% 29.93 in 10.0 mi East 3.5 mph - 0.00 in   Clear
11:58 PM 78.8 °F - 71.6 °F 78% 29.96 in 10.0 mi East 5.8 mph - N/A   Clear